To NAV CANADA Home Page Login to a new session Search on AWWS site Feedback and Comments Disclaimer Vers la page française équivalente Tips FAQ What's new on the site To the Forecasts and Observations / NOTAM section To "File a Flight Plan" website Publications and other links Update of the User's profile FIC Telephone Numbers My Weather Data Folder Route Weather Data Regional Weather Data Local Weather Data To the Forecasts and Observations / NOTAM section
Request Generated 05/24/2016 at 11:41:03 UTC . Weather information available at that time is displayed.

METAR/TAF

HALIFAX/SHEARWATER/NS    

METAR CYAW 241100Z 08003KT 1SM BR OVC002 07/07 A3007 RMK ST8 DA-816FT FST OBS SLP183=

*** REMARK        : Forecast period has ended; this was the last TAF issued
*** REMARQUE : La période de prévision est échue; ceci était le dernier TAF qui a été émis
TAF AMD CYAW 192206Z 1918/2006 FCST CNCLD DUE END OF FLYING PROGRAM
RMK NXT FCST WILL BE ISSUED AT 241215Z=
Your time UTC time
Weather data provided by Environment Canada and NAV CANADA